When you browse on this site, cookies collect data to enhance your experience and personalize the content and advertising you see.
Visit our Privacy Policy to learn more. By continuing to use the site, you agree to this use of cookies and data.
  • în România
  • Lista ţărilor
  • Pe 7 zile
  • Temperatura apei
  • Hartă satelitară
  • Meteo pe hartă
  • Widget-uri
  • user-avatar
    Intrare

    Meteo pe oră la Akhaltsikhe

    Astăzi, 26 Martie, Marţi

    Timp Temperatura Precipitaţii Vânt Presiune Umiditate
    00:00 0°C° 0 mm 1 m/s 644 mmHg 84%
    01:00 0°C° 0 mm 1 m/s 644 mmHg 83%
    02:00 0°C° 0 mm 1 m/s 644 mmHg 81%
    03:00 -3°C° 0 mm 2 m/s 644 mmHg 81%
    04:00 -3°C° 0 mm 2 m/s 644 mmHg 80%
    05:00 -2°C° 0 mm 2 m/s 644 mmHg 79%
    06:00 -2°C° 0 mm 2 m/s 644 mmHg 79%
    07:00 -1°C° 0 mm 2 m/s 644 mmHg 74%
    08:00 +2°C° 0 mm 2 m/s 645 mmHg 70%
    09:00 +5°C° 0 mm 1 m/s 645 mmHg 65%
    10:00 +7°C° 0 mm 1 m/s 645 mmHg 64%
    11:00 +8°C° 0 mm 1 m/s 645 mmHg 63%
    12:00 +9°C° 0 mm 1 m/s 646 mmHg 61%
    13:00 +9°C° 0 mm 1 m/s 645 mmHg 62%
    14:00 +9°C° 0 mm 1 m/s 645 mmHg 63%
    15:00 +9°C° 0 mm 1 m/s 645 mmHg 64%
    16:00 +8°C° 0.1 mm 1 m/s 645 mmHg 68%
    17:00 +7°C° 0.1 mm 1 m/s 645 mmHg 72%
    18:00 +6°C° 0.1 mm 1 m/s 645 mmHg 76%
    19:00 +5°C° 0.1 mm 1 m/s 645 mmHg 79%
    20:00 +4°C° 0.1 mm 1 m/s 645 mmHg 81%
    21:00 +3°C° 0.1 mm 1 m/s 645 mmHg 84%
    22:00 +3°C° 0 mm 1 m/s 645 mmHg 83%
    23:00 +2°C° 0 mm 1 m/s 645 mmHg 82%

    Mâine, 27 Martie, Miercuri

    Timp Temperatura Precipitaţii Vânt Presiune Umiditate
    00:00 +2°C° 0 mm 1 m/s 644 mmHg 81%
    01:00 +2°C° 0 mm 1 m/s 644 mmHg 80%
    02:00 +1°C° 0 mm 2 m/s 644 mmHg 80%
    03:00 +1°C° 0 mm 2 m/s 645 mmHg 79%
    04:00 -1°C° 0 mm 2 m/s 645 mmHg 79%
    05:00 -1°C° 0 mm 2 m/s 645 mmHg 79%
    06:00 -1°C° 0 mm 2 m/s 645 mmHg 79%
    07:00 +3°C° 0 mm 1 m/s 645 mmHg 75%
    08:00 +6°C° 0 mm 1 m/s 646 mmHg 70%
    09:00 +8°C° 0 mm 1 m/s 646 mmHg 65%
    10:00 +9°C° 0 mm 1 m/s 646 mmHg 63%
    11:00 +10°C° 0 mm 1 m/s 647 mmHg 60%
    12:00 +11°C° 0 mm 1 m/s 647 mmHg 57%
    13:00 +10°C° 0 mm 1 m/s 646 mmHg 59%
    14:00 +10°C° 0 mm 1 m/s 646 mmHg 62%
    15:00 +8°C° 0 mm 2 m/s 646 mmHg 64%
    16:00 +8°C° 0 mm 1 m/s 646 mmHg 68%
    17:00 +7°C° 0 mm 1 m/s 646 mmHg 72%
    18:00 +6°C° 0 mm 1 m/s 646 mmHg 76%
    19:00 +5°C° 0 mm 1 m/s 646 mmHg 81%
    20:00 +4°C° 0 mm 1 m/s 647 mmHg 86%
    21:00 +3°C° 0 mm 1 m/s 647 mmHg 91%
    22:00 +3°C° 0 mm 1 m/s 648 mmHg 91%
    23:00 +2°C° 0 mm 1 m/s 648 mmHg 91%

    Poimâine, 28 Martie, Joi

    Timp Temperatura Precipitaţii Vânt Presiune Umiditate
    00:00 +2°C° 0 mm 1 m/s 648 mmHg 91%
    01:00 +2°C° 0.1 mm 1 m/s 648 mmHg 91%
    02:00 +2°C° 0.1 mm 1 m/s 648 mmHg 91%
    03:00 +2°C° 0.1 mm 1 m/s 648 mmHg 91%
    04:00 +2°C° 0.1 mm 1 m/s 648 mmHg 90%
    05:00 +1°C° 0.1 mm 1 m/s 648 mmHg 90%
    06:00 +1°C° 0.1 mm 1 m/s 648 mmHg 89%
    07:00 +2°C° 0.1 mm 1 m/s 648 mmHg 84%
    08:00 +2°C° 0.1 mm 1 m/s 648 mmHg 79%
    09:00 +3°C° 0.1 mm 1 m/s 649 mmHg 74%
    10:00 +4°C° 0.1 mm 1 m/s 649 mmHg 72%
    11:00 +3°C° 0.1 mm 2 m/s 649 mmHg 69%
    12:00 +4°C° 0.1 mm 2 m/s 649 mmHg 67%
    13:00 +4°C° 0.2 mm 2 m/s 648 mmHg 68%
    14:00 +4°C° 0.2 mm 2 m/s 648 mmHg 70%
    15:00 +4°C° 0.2 mm 2 m/s 648 mmHg 71%
    16:00 +3°C° 0.3 mm 2 m/s 648 mmHg 76%
    17:00 +3°C° 0.3 mm 2 m/s 648 mmHg 80%
    18:00 +2°C° 0.3 mm 2 m/s 648 mmHg 85%
    19:00 +2°C° 0.2 mm 1 m/s 648 mmHg 87%
    20:00 +2°C° 0.2 mm 1 m/s 648 mmHg 89%
    21:00 +1°C° 0.2 mm 1 m/s 649 mmHg 92%
    22:00 +1°C° 0.1 mm 1 m/s 649 mmHg 91%
    23:00 +1°C° 0.1 mm 1 m/s 648 mmHg 91%

    29 Martie, Vineri

    Timp Temperatura Precipitaţii Vânt Presiune Umiditate
    00:00 +1°C° 0.1 mm 1 m/s 648 mmHg 91%
    01:00 +1°C° 0.3 mm 1 m/s 648 mmHg 90%
    02:00 +1°C° 0.3 mm 1 m/s 648 mmHg 90%
    03:00 0°C° 0.3 mm 1 m/s 648 mmHg 89%
    04:00 0°C° 0.5 mm 1 m/s 648 mmHg 90%
    05:00 0°C° 0.5 mm 1 m/s 648 mmHg 90%
    06:00 0°C° 0.5 mm 1 m/s 648 mmHg 90%
    07:00 +1°C° 0.4 mm 1 m/s 648 mmHg 87%
    08:00 +1°C° 0.4 mm 1 m/s 648 mmHg 84%
    09:00 +2°C° 0.4 mm 1 m/s 648 mmHg 81%
    10:00 +1°C° 0.5 mm 2 m/s 648 mmHg 79%
    11:00 +1°C° 0.5 mm 2 m/s 648 mmHg 78%
    12:00 +2°C° 0.5 mm 2 m/s 648 mmHg 77%
    13:00 +2°C° 0.4 mm 2 m/s 648 mmHg 77%
    14:00 +2°C° 0.4 mm 2 m/s 648 mmHg 78%
    15:00 +2°C° 0.4 mm 2 m/s 647 mmHg 79%
    16:00 +1°C° 0.4 mm 2 m/s 647 mmHg 82%
    17:00 +1°C° 0.4 mm 2 m/s 647 mmHg 85%
    18:00 -1°C° 0.4 mm 2 m/s 648 mmHg 88%
    19:00 +1°C° 0.3 mm 1 m/s 648 mmHg 89%
    20:00 0°C° 0.3 mm 1 m/s 648 mmHg 90%
    21:00 0°C° 0.3 mm 1 m/s 648 mmHg 91%
    22:00 0°C° 0.2 mm 1 m/s 648 mmHg 91%
    23:00 0°C° 0.2 mm 1 m/s 648 mmHg 90%

    30 Martie, Sâmbătă

    Timp Temperatura Precipitaţii Vânt Presiune Umiditate
    00:00 0°C° 0.2 mm 1 m/s 648 mmHg 89%
    01:00 0°C° 0.2 mm 1 m/s 647 mmHg 88%
    02:00 0°C° 0.2 mm 1 m/s 647 mmHg 88%
    03:00 -1°C° 0.2 mm 0 m/s 647 mmHg 87%
    04:00 -1°C° 0.2 mm 0 m/s 647 mmHg 87%
    05:00 -1°C° 0.2 mm 0 m/s 647 mmHg 87%
    06:00 -1°C° 0.2 mm 0 m/s 647 mmHg 87%
    07:00 +2°C° 0.2 mm 1 m/s 647 mmHg 84%
    08:00 +3°C° 0.2 mm 1 m/s 647 mmHg 80%
    09:00 +4°C° 0.2 mm 1 m/s 647 mmHg 77%
    10:00 +6°C° 0.2 mm 1 m/s 648 mmHg 76%
    11:00 +7°C° 0.2 mm 1 m/s 648 mmHg 76%
    12:00 +9°C° 0.2 mm 1 m/s 648 mmHg 75%
    13:00 +8°C° 0.2 mm 1 m/s 648 mmHg 76%
    14:00 +8°C° 0.2 mm 1 m/s 647 mmHg 78%
    15:00 +8°C° 0.2 mm 1 m/s 647 mmHg 79%
    16:00 +7°C° 0.2 mm 1 m/s 646 mmHg 82%
    17:00 +7°C° 0.2 mm 1 m/s 646 mmHg 85%
    18:00 +6°C° 0.2 mm 1 m/s 646 mmHg 88%
    19:00 +4°C° 0.2 mm 2 m/s 646 mmHg 87%
    20:00 +4°C° 0.2 mm 2 m/s 646 mmHg 87%
    21:00 +3°C° 0.2 mm 2 m/s 646 mmHg 86%
    22:00 +3°C° 0.1 mm 2 m/s 646 mmHg 85%
    23:00 +3°C° 0.1 mm 2 m/s 646 mmHg 85%

    31 Martie, Duminică

    Timp Temperatura Precipitaţii Vânt Presiune Umiditate
    00:00 +2°C° 0.1 mm 2 m/s 645 mmHg 84%
    01:00 +2°C° 0.1 mm 2 m/s 645 mmHg 84%
    02:00 +2°C° 0.1 mm 2 m/s 645 mmHg 85%
    03:00 +2°C° 0.1 mm 2 m/s 645 mmHg 85%
    04:00 +2°C° 0 mm 2 m/s 645 mmHg 85%
    05:00 +2°C° 0 mm 2 m/s 645 mmHg 85%
    06:00 +2°C° 0 mm 2 m/s 644 mmHg 85%
    07:00 +3°C° 0 mm 2 m/s 645 mmHg 82%
    08:00 +5°C° 0 mm 2 m/s 645 mmHg 78%
    09:00 +6°C° 0 mm 2 m/s 645 mmHg 75%
    10:00 +7°C° 0 mm 2 m/s 645 mmHg 73%
    11:00 +8°C° 0 mm 2 m/s 645 mmHg 71%
    12:00 +9°C° 0 mm 2 m/s 645 mmHg 69%
    13:00 +9°C° 0 mm 2 m/s 645 mmHg 69%
    14:00 +9°C° 0 mm 2 m/s 644 mmHg 69%
    15:00 +10°C° 0 mm 2 m/s 644 mmHg 70%
    16:00 +8°C° 0 mm 2 m/s 643 mmHg 72%
    17:00 +7°C° 0 mm 2 m/s 643 mmHg 75%
    18:00 +7°C° 0 mm 1 m/s 643 mmHg 78%
    19:00 +7°C° 0 mm 1 m/s 643 mmHg 79%
    20:00 +5°C° 0 mm 2 m/s 643 mmHg 81%
    21:00 +4°C° 0 mm 2 m/s 642 mmHg 83%
    22:00 +3°C° 0 mm 2 m/s 642 mmHg 83%
    23:00 +3°C° 0 mm 2 m/s 642 mmHg 83%
    Arată mai mult